User: anonymous   Login
Location: U-46 Planetarium
(42.0300°N, 88.2740°W)
Time: 01:02:33
(UTC-05:00)
Language:

Cosmos 1515 - Orbit

View from above orbital plane
View from above orbital plane
View from above satellite
View from above satellite

Ground track
Ground track

The orbit data is extracted from the following two-line orbital elements,

1 14551U 83122A   18227.41252639  .00000313  00000-0  13962-4 0  9996
2 14551  82.4996 114.9764 0005602 260.4429 219.1906 15.17575453634169
Epoch (UTC): 15 August 2018 09:54:02
Eccentricity: 0.0005602
inclination: 82.4996°
perigee height: 509 km
apogee height: 517 km
right ascension of ascending node: 114.9764°
argument of perigee: 260.4429°
revolutions per day: 15.17575453
mean anomaly at epoch: 219.1906°
orbit number at epoch: 63416

The dashed part of the orbit path shows where the satellite is in the earth's shadow,  

DLR